GFSFLT2_850_spd_003.txt.gz
Wind_Speed
8 7 7 5 2 2 3 4 4 4 4 5 5 6 8 9 8 8 10 12 15 16 16 15 15 14 14 13 12 11 6 9
8 7 5 4 4 3 1 1 2 2 3 4 6 9 9 8 8 9 11 13 15 17 17 17 16 16 15 14 12 8 4 7
7 5 5 4 4 5 6 3 3 5 7 7 8 6 8 10 15 13 14 14 17 19 19 19 19 16 17 14 12 5 7 6
6 6 4 4 3 3 1 3 2 2 2 5 6 8 8 12 14 19 19 18 21 18 19 19 16 11 14 16 10 11 8 9
8 5 3 4 1 2 2 2 2 3 6 6 6 8 8 10 10 13 14 18 12 15 14 13 15 16 12 11 11 10 9 10
6 4 1 2 3 1 1 2 2 3 4 7 8 8 9 10 11 12 13 13 14 13 13 15 15 16 14 14 11 10 8 9
7 6 4 1 1 1 1 1 2 2 4 5 6 7 9 10 12 12 13 12 13 14 14 14 15 13 14 12 11 11 12 10
10 8 7 3 3 3 3 1 2 3 3 3 7 6 8 10 11 11 12 12 13 14 14 15 14 14 14 14 14 13 13 12
10 10 8 5 4 3 3 2 2 3 3 5 6 8 8 10 11 12 13 14 16 17 17 18 18 17 17 18 16 16 15 15
9 9 9 6 6 4 3 3 3 4 6 7 8 7 9 12 13 15 16 18 18 19 20 21 21 22 22 20 20 20 19 18
10 11 10 6 6 4 3 4 4 6 7 8 8 9 10 12 14 17 19 21 22 23 24 25 25 26 27 27 26 24 24 23
12 12 9 7 6 5 5 6 6 8 9 8 9 10 10 13 16 18 20 22 24 26 27 29 30 31 32 33 33 31 29 28
11 11 10 6 6 6 7 8 9 8 9 10 11 11 17 16 17 19 20 22 24 26 28 29 29 29 32 34 34 37 36 35
8 5 4 4 4 4 5 6 6 9 8 13 13 16 22 22 23 19 19 21 23 25 26 28 29 29 31 34 36 38 36 38
7 6 5 4 4 2 5 7 9 12 15 16 18 22 23 19 19 19 20 20 23 24 25 27 30 31 29 32 34 35 33 34
9 7 5 6 3 5 10 10 12 14 17 20 24 21 21 20 20 20 19 20 23 24 24 27 28 32 30 31 35 37 38 38
7 4 5 6 6 8 12 16 21 30 30 22 21 19 19 20 21 22 24 23 22 21 21 19 21 22 22 22 23 26 28 26
6 5 5 8 11 15 25 42 34 18 19 19 18 20 20 20 22 21 21 20 19 19 19 18 17 16 15 14 13 13 17 15
8 10 12 14 17 19 16 13 15 17 19 19 22 22 22 22 22 20 20 19 20 20 20 21 18 14 17 13 14 21 23 22
13 13 15 16 14 14 15 16 17 17 18 20 21 21 23 22 23 21 22 20 21 19 14 15 17 20 24 23 26 19 16 20

GFSFLT2_850_spd_006.txt.gz
Wind_Speed
13 11 8 6 4 2 2 3 3 4 5 6 8 8 9 9 8 7 10 11 13 16 17 17 16 16 15 14 14 14 11 4
8 8 8 6 7 6 5 4 5 7 7 8 10 12 18 15 12 16 16 15 16 18 18 18 18 17 15 15 16 11 8 7
9 9 8 3 5 6 7 10 10 9 10 12 12 11 11 16 18 18 19 18 21 18 20 20 15 12 15 16 16 5 8 8
10 6 7 10 3 7 9 11 10 7 4 7 5 8 5 11 13 17 18 20 20 18 19 19 16 19 14 12 11 11 17 9
9 10 7 7 4 4 5 4 4 5 4 9 4 7 4 5 9 13 16 16 14 22 15 16 19 23 19 13 12 14 8 9
12 7 6 10 6 5 4 3 0 3 5 4 4 2 4 6 5 9 7 10 13 14 15 16 18 22 23 19 16 13 10 11
18 13 6 3 9 4 6 5 3 2 2 6 5 5 7 8 10 10 10 11 12 13 16 15 16 18 19 22 21 17 17 15
18 12 8 6 7 6 4 3 0 3 2 7 6 7 9 11 13 13 12 12 14 19 19 20 22 23 20 18 23 23 21 18
25 17 14 12 7 4 7 5 0 0 3 8 11 8 9 12 14 12 11 14 19 20 18 21 22 23 24 23 23 25 27 25
4 23 14 10 7 6 5 4 2 1 4 5 10 8 12 14 14 16 17 19 23 22 24 23 24 25 27 28 29 29 30 29
15 13 11 7 7 4 4 5 3 7 8 7 9 8 10 14 17 20 24 25 24 24 26 26 25 25 28 30 30 29 29 30
4 8 8 8 6 7 3 7 6 4 5 9 12 10 12 18 21 20 20 24 24 24 26 28 31 32 32 31 33 35 35 35
8 7 11 5 3 6 7 5 5 6 4 8 11 14 18 25 25 21 22 23 23 24 28 29 29 28 31 33 34 33 32 32
4 6 7 4 6 3 4 6 6 6 6 10 11 17 23 38 32 25 20 23 24 23 22 26 27 27 29 33 36 37 32 30
9 8 8 8 8 3 2 3 4 9 16 24 21 26 38 22 20 22 24 27 28 25 25 26 28 28 24 25 31 31 32 32
9 9 7 3 1 12 16 15 16 22 31 31 28 19 19 16 18 21 23 26 27 24 24 26 28 28 27 20 21 22 19 27
7 4 3 5 12 14 12 12 19 20 17 16 16 13 16 21 22 24 25 29 29 24 25 24 23 23 22 23 26 32 34 27
4 5 7 13 12 9 19 20 17 13 15 13 14 19 24 22 23 25 25 22 23 24 23 22 23 24 26 27 26 25 24 19
10 12 14 14 18 17 11 12 13 13 14 16 21 26 18 22 22 24 23 22 21 24 26 24 27 26 26 27 25 24 27 22
14 14 15 16 16 15 14 12 12 14 16 21 20 17 22 20 19 20 19 23 25 25 23 24 23 26 21 18 25 28 22 20

GFSFLT2_850_spd_009.txt.gz
Wind_Speed
15 12 9 7 5 5 5 5 6 6 6 6 9 10 12 13 13 12 13 13 15 16 17 17 15 14 13 13 13 9 7 3
11 10 10 10 9 8 8 8 8 9 10 10 9 10 12 14 13 15 15 16 17 16 20 16 15 13 15 13 12 5 3 3
8 7 8 9 12 10 9 9 8 9 11 10 8 8 8 13 13 15 15 18 17 20 21 19 20 20 19 16 12 4 7 8
11 5 8 7 8 11 10 10 9 10 10 7 5 7 6 8 8 10 12 13 15 19 20 21 22 23 21 19 15 12 11 9
11 7 14 5 3 4 5 8 9 5 7 5 5 4 2 3 7 9 10 11 14 16 17 20 22 22 24 23 18 15 11 8
12 8 11 13 9 6 6 5 4 3 2 3 2 1 1 1 4 7 8 9 11 13 15 21 20 22 24 24 23 21 18 12
16 8 8 10 11 11 10 8 5 4 5 3 3 1 4 4 8 10 11 8 11 14 17 20 19 21 24 25 27 26 25 23
18 9 3 8 14 10 6 8 3 2 3 5 6 6 6 8 9 11 12 12 14 19 22 21 21 23 26 26 28 28 28 28
22 10 9 7 9 5 7 4 2 2 5 8 11 10 8 11 11 13 14 16 18 23 26 24 24 23 25 27 27 28 30 33
22 14 16 16 11 6 8 5 2 2 6 4 5 2 5 8 8 13 15 16 21 25 25 24 24 24 24 23 25 27 28 29
14 10 19 12 13 9 7 6 4 4 7 6 7 6 7 9 11 18 21 23 25 23 20 23 25 29 31 33 31 27 27 29
13 22 18 15 11 10 7 8 5 7 5 5 8 9 10 14 20 25 33 27 27 29 29 28 30 30 27 26 27 27 26 30
20 18 11 16 16 14 11 12 6 6 5 8 12 15 20 31 29 29 28 22 22 24 28 29 27 28 33 36 38 36 35 34
22 22 17 12 11 11 9 6 4 9 12 12 15 24 24 24 23 23 20 22 27 30 31 30 32 29 30 32 30 36 35 29
12 10 8 5 2 2 5 8 9 13 16 21 26 21 19 16 16 17 19 24 28 30 32 33 32 32 31 29 23 23 31 32
8 8 8 5 8 13 13 12 16 17 19 15 11 19 17 15 17 20 25 29 29 31 30 29 26 27 29 27 21 23 20 25
9 10 16 18 19 13 14 12 14 9 10 13 14 14 15 19 25 31 29 28 27 27 28 27 28 26 24 22 25 29 31 31
10 7 8 12 16 11 13 9 8 11 15 17 18 20 25 30 26 25 21 22 21 22 25 27 29 29 28 27 26 27 29 24
7 11 15 16 12 12 13 15 15 16 15 18 23 27 21 23 23 20 21 25 23 22 22 21 20 23 26 24 24 24 23 26
7 11 14 10 12 16 16 16 15 15 17 27 18 19 19 18 20 25 31 29 27 27 27 25 25 27 25 27 29 31 25 22

GFSFLT2_850_spd_012.txt.gz
Wind_Speed
15 13 10 8 5 4 5 7 7 8 8 6 8 9 10 11 11 12 13 14 14 15 15 15 13 13 12 10 7 2 2 5
14 12 10 9 7 8 8 9 10 9 9 8 9 11 12 11 13 12 14 14 15 18 18 18 16 16 16 14 8 3 4 6
11 11 12 13 11 10 10 10 10 11 8 7 8 9 9 10 11 11 13 13 14 16 18 20 21 19 19 19 15 10 9 9
9 9 11 11 11 11 11 11 10 10 8 6 5 5 5 6 8 10 12 12 13 14 15 18 21 20 20 20 19 16 13 11
12 11 9 9 4 6 7 8 8 7 6 5 3 2 3 5 7 9 10 11 13 14 18 18 23 20 20 21 20 19 17 16
14 12 11 11 8 6 4 4 2 3 3 2 1 2 1 2 3 5 8 9 12 15 18 20 24 21 21 21 22 22 20 18
17 15 12 10 8 8 7 4 2 2 3 3 4 2 1 1 2 3 4 6 10 12 15 19 23 20 20 22 22 23 23 23
19 17 15 14 11 9 7 8 9 7 5 5 5 6 5 3 5 5 6 8 11 14 18 21 22 21 22 19 21 23 23 24
23 18 13 10 12 9 8 11 7 6 4 7 8 7 8 9 8 8 10 12 15 19 23 26 26 24 23 21 22 21 21 24
30 20 15 8 10 7 7 9 6 9 9 12 13 12 11 11 12 15 18 21 22 28 35 32 29 29 28 27 28 28 28 25
33 18 10 9 11 12 10 11 8 10 10 11 12 9 8 11 16 19 26 36 36 34 33 27 29 30 31 31 30 30 27 24
18 12 10 11 16 12 13 11 12 9 5 2 4 7 12 16 20 29 35 28 28 35 28 26 29 31 32 32 31 30 30 31
13 16 15 17 11 16 12 9 4 1 3 5 10 20 17 24 31 35 30 27 24 23 27 31 33 34 38 40 40 36 23 22
9 13 13 13 10 4 5 1 1 4 9 15 18 23 28 28 22 20 19 19 21 24 29 33 35 36 36 35 26 35 30 24
12 9 6 3 3 2 3 8 12 13 17 21 23 22 21 21 16 17 19 23 28 30 30 31 33 33 30 26 20 18 30 27
9 9 6 1 5 11 15 16 16 18 20 18 16 20 16 17 20 24 27 31 32 30 29 28 27 28 29 24 23 26 22 26
8 8 9 9 12 15 15 17 19 18 16 17 14 14 17 20 29 30 26 24 24 24 24 23 21 21 21 21 22 21 21 24
7 7 10 12 13 13 14 16 15 13 12 13 16 20 23 26 27 27 23 22 24 28 25 23 21 24 18 19 22 18 17 20
4 6 9 10 12 13 13 12 11 13 14 18 22 26 27 20 24 21 23 29 26 24 25 25 26 25 27 27 27 24 24 24
7 9 11 14 13 10 10 13 20 25 25 32 32 23 20 19 20 25 26 22 20 21 20 16 20 20 18 18 20 20 19 20

GFSFLT2_850_spd_015.txt.gz
Wind_Speed
16 13 10 8 8 7 6 6 5 8 10 11 13 12 13 13 13 14 14 14 15 16 17 16 16 17 18 15 13 9 9 9
14 11 9 8 7 8 8 9 10 11 11 11 11 11 11 11 12 13 13 13 13 14 17 19 18 18 18 17 16 14 11 12
13 11 11 10 10 12 12 12 12 10 10 9 7 8 8 8 10 10 10 10 10 12 14 18 20 18 17 17 16 16 15 16
13 12 12 13 13 13 12 11 12 8 6 6 4 4 5 6 8 8 9 9 9 11 13 14 17 19 17 16 15 14 14 15
15 15 13 12 13 13 12 11 10 6 4 3 1 2 3 4 5 6 6 7 8 10 12 15 18 20 18 16 15 14 14 15
15 16 15 11 11 10 9 9 7 5 2 1 1 3 3 2 2 2 3 4 7 9 10 13 17 19 19 19 19 16 14 14
18 18 16 13 11 11 9 6 4 3 1 1 3 3 5 5 4 4 5 7 11 12 14 17 20 24 26 25 23 21 19 17
21 19 16 14 11 10 9 7 6 3 2 2 3 4 6 7 7 7 8 10 13 16 22 21 25 30 31 28 25 24 23 21
20 18 14 12 12 10 8 8 6 4 4 6 8 8 9 11 12 12 14 16 18 24 30 29 29 30 26 23 24 24 26 28
21 18 16 14 14 10 10 9 8 9 10 11 12 11 11 11 12 13 17 21 26 34 36 31 31 27 24 24 24 25 25 25
24 23 15 11 10 4 6 11 10 9 10 10 11 9 8 11 16 19 22 29 33 34 31 29 25 25 27 27 28 28 28 28
25 19 9 7 8 10 12 10 4 4 3 4 7 8 12 18 21 25 28 31 31 30 27 26 28 31 32 35 35 32 29 25
16 10 15 8 6 9 7 3 1 3 3 5 13 23 25 25 26 26 32 31 26 27 28 30 31 33 36 37 36 22 11 24
5 10 5 4 6 6 5 4 4 9 14 16 18 21 25 20 26 28 25 21 22 25 29 32 33 30 31 32 18 30 20 20
10 9 4 1 4 4 6 9 10 16 21 23 25 23 20 23 20 19 19 22 24 29 28 28 29 29 26 23 19 13 32 29
9 7 5 5 5 8 12 11 16 18 20 20 19 20 19 16 15 18 30 31 29 27 28 29 31 29 27 20 20 24 25 29
7 4 2 1 7 12 14 13 16 16 13 13 15 16 18 21 28 34 25 26 28 29 31 30 25 25 24 24 27 27 22 21
7 2 3 7 11 12 13 14 13 10 11 15 21 28 32 32 21 23 26 26 26 28 23 22 22 21 19 19 22 20 24 23
5 1 6 10 10 10 10 11 14 18 20 22 24 27 26 25 22 23 21 25 22 20 18 19 19 19 18 17 15 17 21 23
3 6 9 11 11 12 14 17 21 22 23 26 28 29 29 24 22 21 19 21 18 17 19 19 20 17 17 17 17 20 20 21

GFSFLT2_850_spd_018.txt.gz
Wind_Speed
16 15 12 11 10 10 9 9 10 13 13 15 15 14 13 13 14 14 14 13 15 17 17 18 18 17 16 16 16 17 16 14
15 13 11 10 10 10 10 11 13 14 14 13 13 12 12 11 12 12 12 11 11 13 14 17 17 16 16 15 15 15 15 16
14 12 11 11 11 12 12 14 14 14 12 10 10 9 9 8 9 9 9 8 8 9 11 12 14 14 14 14 14 14 14 15
14 13 12 12 13 13 14 14 14 12 10 8 8 7 6 6 6 7 6 6 6 7 8 10 13 16 15 15 17 17 14 13
15 13 12 12 13 12 13 12 10 8 7 6 5 4 4 4 3 3 2 4 6 8 11 13 17 20 20 20 20 20 17 15
15 14 12 13 12 10 9 10 7 4 4 2 1 1 1 1 1 2 4 6 8 10 11 15 22 25 24 27 28 23 20 20
14 13 11 10 11 9 6 6 4 2 0 0 1 2 3 3 5 6 7 7 9 10 11 18 26 26 25 27 26 21 17 16
13 12 12 11 10 9 9 7 6 6 5 5 4 3 4 6 8 8 7 9 12 13 17 26 28 24 24 23 21 20 21 21
17 15 14 14 11 13 11 3 9 12 11 9 7 7 7 8 8 8 10 13 17 20 27 27 23 24 25 20 19 18 20 22
17 18 17 13 10 10 9 9 11 13 11 10 9 9 8 8 10 12 16 19 22 25 26 24 24 24 22 23 24 23 26 27
25 20 14 4 11 14 11 9 7 9 8 9 9 7 7 11 15 20 28 24 25 29 25 23 24 27 26 26 27 27 31 32
24 20 15 16 6 10 4 4 5 0 6 6 7 10 16 21 25 20 17 20 27 26 24 25 27 29 30 32 33 33 32 23
19 15 12 7 6 9 13 3 9 6 4 9 16 19 18 21 24 20 23 29 29 25 25 30 33 34 35 36 34 15 11 22
6 7 7 7 7 2 5 5 6 9 13 16 18 19 20 23 22 25 27 26 24 27 32 28 28 29 30 31 15 26 13 9
18 15 12 10 9 7 7 9 9 13 17 20 21 20 20 21 21 23 25 30 33 27 27 29 30 28 24 18 11 9 25 23
15 12 9 7 5 5 8 11 13 16 18 18 17 17 20 23 28 32 32 24 24 27 28 29 27 23 22 17 17 20 19 23
10 7 3 0 3 6 9 11 12 14 13 15 18 21 22 26 24 24 27 25 23 25 26 22 21 20 20 20 21 19 17 17
8 5 1 2 5 6 9 10 10 11 14 15 18 21 24 26 26 24 20 17 21 21 20 18 19 20 20 19 17 16 18 19
6 3 2 3 4 8 10 12 14 16 16 18 22 24 25 23 23 25 24 17 16 18 18 19 19 20 20 20 19 18 19 21
6 1 5 7 8 10 12 13 14 14 15 18 22 25 26 28 23 22 24 21 20 21 19 17 19 17 18 19 22 20 20 21

GFSFLT2_850_spd_021.txt.gz
Wind_Speed
18 16 15 13 12 12 12 12 14 15 16 15 15 14 13 12 12 12 13 13 13 13 14 14 15 14 15 16 16 17 16 15
16 15 15 14 12 12 11 12 15 15 15 14 13 12 11 10 9 9 9 9 9 9 10 13 15 15 15 15 16 16 16 15
15 14 13 13 13 12 12 14 15 15 13 11 11 9 8 7 7 6 7 6 7 8 10 12 15 18 19 19 18 18 17 16
14 13 12 12 13 12 13 14 14 12 9 8 7 6 4 3 3 4 3 4 6 8 10 12 16 20 22 22 22 24 22 19
14 13 12 12 11 12 12 13 11 8 6 6 5 3 3 2 1 0 2 4 5 7 9 11 16 21 25 26 25 24 23 22
14 12 11 11 11 11 11 10 7 5 3 2 3 3 2 3 3 3 3 5 7 8 8 10 18 23 25 25 26 26 25 21
14 13 12 12 11 10 8 7 4 3 3 3 2 3 4 4 4 5 7 8 9 11 12 15 21 24 25 25 26 25 24 23
15 14 13 12 11 9 8 4 3 7 10 7 7 7 6 6 6 8 10 12 14 15 18 21 24 25 26 24 23 21 20 20
16 16 14 13 9 9 2 8 6 16 17 12 9 7 7 8 9 11 12 14 17 19 21 25 27 24 22 23 24 25 26 25
18 15 16 13 8 4 11 21 17 18 15 11 7 5 7 7 9 12 16 19 18 20 22 24 22 22 22 25 26 28 29 30
18 15 13 12 9 13 20 17 13 5 2 3 6 5 6 10 19 26 24 19 18 22 22 21 22 23 26 29 29 29 30 31
20 16 10 7 15 4 8 4 6 3 6 3 3 7 15 20 20 20 20 18 22 22 23 27 29 31 31 29 29 27 23 19
16 15 11 10 3 6 10 5 3 0 2 6 9 14 16 16 15 15 16 19 23 26 29 31 27 28 26 23 20 12 10 15
12 4 11 13 11 10 4 5 3 3 6 10 15 17 16 15 16 18 22 27 29 24 21 23 24 26 24 18 13 14 10 10
17 16 15 13 10 8 4 2 5 8 11 13 15 14 14 16 20 22 22 21 21 23 22 24 24 22 20 12 11 10 22 12
20 18 17 14 9 5 2 5 8 11 12 12 12 14 16 18 21 22 23 24 23 22 21 23 20 17 16 11 12 14 16 20
18 15 12 8 4 3 6 8 8 9 10 12 13 15 18 21 24 27 25 25 23 21 22 17 16 15 13 11 12 12 12 15
15 11 8 5 4 5 7 7 9 10 11 13 15 20 22 22 24 25 26 24 20 21 19 17 16 14 13 10 11 13 16 17
14 10 7 2 3 5 7 9 12 14 14 15 18 21 25 27 27 27 25 19 22 23 19 15 14 15 15 14 16 16 18 18
12 8 2 1 4 7 9 12 13 11 13 16 20 26 27 29 28 26 21 23 24 20 15 12 15 15 16 17 19 17 20 22

GFSFLT2_850_spd_024.txt.gz
Wind_Speed
17 16 14 14 12 11 11 11 11 11 13 12 12 12 10 10 9 11 11 12 12 11 12 13 15 16 17 18 17 17 13 11
16 15 13 13 12 11 11 11 11 11 11 12 11 9 8 7 7 7 6 7 6 7 9 10 12 15 18 21 20 17 13 11
16 14 13 11 10 11 11 11 12 12 11 10 8 5 5 3 4 5 4 3 2 4 6 7 11 16 18 21 18 14 13 11
17 14 12 10 10 11 11 12 8 7 6 7 4 4 3 3 2 2 1 1 2 3 5 7 10 11 12 17 16 17 14 13
14 13 12 11 9 9 8 7 7 6 5 4 5 4 3 3 2 1 2 3 2 4 6 7 14 16 17 21 20 18 16 15
12 12 12 12 10 9 10 7 5 3 4 4 5 3 5 4 3 4 4 6 7 7 8 14 16 20 23 24 24 20 16 16
13 11 12 12 13 12 12 10 6 4 4 5 5 3 7 6 7 6 7 8 7 9 10 13 17 15 16 23 20 17 19 16
14 13 14 14 15 14 12 6 1 5 8 12 9 8 8 9 8 8 9 11 13 12 16 17 14 15 15 16 19 17 16 19
15 15 15 15 14 13 13 4 12 19 23 27 13 11 12 9 9 10 12 16 17 19 21 14 14 16 17 18 19 20 21 21
17 17 14 14 12 14 10 17 20 18 16 9 5 4 7 10 9 10 18 20 19 14 12 13 16 18 20 21 23 24 24 23
18 20 21 19 14 12 19 18 10 10 4 0 3 5 6 8 13 16 13 15 17 13 12 16 18 20 21 25 25 24 24 22
16 19 21 16 10 12 10 4 6 7 4 4 4 6 9 12 12 14 13 10 11 15 19 18 18 21 23 25 21 23 22 16
13 14 14 5 9 10 10 13 9 5 4 3 7 10 12 12 11 11 14 14 20 22 17 17 20 19 21 24 23 20 14 14
12 11 10 13 15 14 11 9 7 6 7 9 9 10 11 12 14 12 17 17 14 15 19 19 19 18 18 22 23 23 20 11
14 15 15 16 14 11 8 8 4 4 4 7 11 11 11 14 17 19 19 17 17 16 15 15 15 16 15 17 21 20 23 23
16 17 16 16 13 9 8 6 5 4 4 4 5 13 14 16 18 20 20 18 16 14 12 13 13 17 16 15 16 18 21 26
17 17 15 15 12 9 7 4 2 1 3 6 8 10 13 14 16 19 18 16 14 11 11 13 14 15 15 15 15 15 16 20
18 16 15 12 10 7 4 2 2 2 4 7 10 12 15 17 19 19 19 17 14 12 14 13 15 14 12 13 14 16 19 20
15 14 13 10 6 3 2 3 5 5 7 9 12 15 18 18 19 19 19 17 15 15 15 17 16 14 14 15 15 15 18 20
14 13 11 8 3 3 7 8 4 6 8 11 13 14 14 17 18 18 17 15 14 18 17 18 15 14 14 15 16 17 18 21

GFSFLT2_850_spd_027.txt.gz
Wind_Speed
25 21 18 16 15 13 12 11 10 10 10 10 10 9 9 8 8 9 9 9 9 10 11 11 12 15 19 21 19 19 15 11
22 19 17 16 15 13 12 10 10 11 10 10 8 7 6 5 3 4 3 4 5 5 6 7 12 18 20 20 17 18 14 12
17 19 15 9 9 13 10 10 11 11 10 8 10 6 6 6 3 1 2 3 3 3 4 7 12 15 16 19 16 15 13 12
18 18 18 16 11 13 10 12 10 7 6 5 6 2 4 4 4 3 4 5 6 7 9 11 11 9 12 14 13 16 13 13
16 14 13 12 11 10 10 10 9 6 6 5 4 1 2 5 5 6 6 9 6 9 9 8 11 12 12 13 15 16 14 13
12 11 13 12 11 11 12 9 8 6 3 2 1 3 3 5 5 5 6 6 7 7 8 11 12 13 14 16 16 16 15 16
13 13 13 14 14 13 12 10 7 5 3 1 3 4 4 3 6 6 8 7 9 9 11 11 14 15 15 16 17 18 18 17
15 14 14 14 13 13 11 8 3 2 3 4 7 11 15 9 9 8 9 8 8 10 11 13 15 14 16 18 19 20 19 20
17 17 16 16 15 17 13 6 7 8 15 15 7 10 10 10 11 12 12 13 19 19 19 13 13 17 18 20 21 21 23 22
17 17 20 19 20 21 11 6 17 23 20 14 3 4 4 10 13 12 13 18 10 9 11 14 17 18 21 22 23 24 24 22
17 17 19 18 15 11 20 23 21 18 10 5 4 7 7 8 8 13 10 7 9 12 13 16 19 21 24 24 24 23 21 23
16 20 18 19 21 14 16 22 13 10 8 6 3 4 6 2 5 10 9 10 12 14 17 17 19 22 23 23 22 22 23 19
23 20 15 17 15 9 11 10 10 7 5 7 4 4 4 5 3 8 11 11 12 15 17 19 20 19 22 23 22 23 19 20
16 15 14 10 8 11 12 12 8 8 6 4 3 5 7 5 11 9 11 13 16 16 17 19 18 17 19 21 25 24 18 17
14 13 11 12 14 14 13 11 9 6 3 1 5 6 4 6 9 11 13 15 16 17 17 17 18 18 16 19 24 22 27 23
14 15 15 16 15 11 11 7 8 7 3 4 3 6 5 8 10 12 14 16 17 16 15 16 17 19 19 18 19 22 25 29
16 17 16 14 11 11 9 6 3 3 1 3 6 7 9 11 13 16 17 17 17 18 17 16 18 19 18 21 20 20 20 22
18 17 15 14 13 11 11 9 6 4 3 7 8 9 10 11 14 16 17 17 19 17 17 20 18 18 21 19 17 18 19 19
18 17 16 14 12 10 9 6 4 6 4 6 7 9 11 11 13 15 16 17 17 18 21 22 20 22 20 18 16 16 16 18
18 17 16 14 12 11 7 4 3 2 5 6 7 8 8 11 13 16 17 17 16 20 20 18 21 20 20 17 16 16 16 17

GFSFLT2_850_spd_030.txt.gz
Wind_Speed
26 24 22 20 15 13 11 10 11 12 12 13 13 12 12 11 11 11 11 10 10 10 11 14 16 19 21 18 19 19 17 15
25 22 20 18 16 13 11 10 11 13 13 13 13 12 9 7 7 6 7 6 6 7 8 12 14 16 17 17 14 16 15 15
24 20 16 15 14 13 11 11 12 13 14 16 12 12 9 5 8 5 4 5 7 8 10 11 12 14 14 14 10 16 12 14
26 22 16 13 14 14 13 15 14 12 12 11 8 6 4 4 6 8 7 10 8 12 13 10 6 10 8 14 14 16 7 8
24 23 20 14 15 14 17 15 13 7 9 8 9 6 3 4 1 5 10 8 8 10 12 8 16 13 13 14 17 12 11 13
25 23 22 14 19 16 14 17 15 11 9 7 6 4 6 5 4 6 3 4 7 7 6 10 8 12 14 15 16 16 15 17
19 25 22 22 18 21 22 18 14 10 7 4 6 7 6 7 9 6 5 5 5 8 8 14 18 15 17 17 18 19 18 16
15 21 23 22 24 20 19 14 12 10 9 4 1 6 8 10 7 5 10 12 14 14 19 20 18 12 15 15 17 18 18 19
20 19 24 24 24 22 20 15 12 9 5 12 7 11 8 6 7 6 11 10 14 17 19 12 12 15 16 18 20 21 23 22
20 23 24 22 22 22 16 11 8 7 12 13 2 5 4 4 6 9 8 11 14 17 11 13 17 16 18 22 20 23 26 20
22 24 24 21 26 24 15 18 18 17 17 5 2 2 1 3 7 7 8 6 9 10 14 19 20 24 21 19 23 26 17 20
21 24 21 23 26 26 13 17 17 11 7 3 1 1 3 1 8 9 8 4 9 15 20 22 22 21 22 21 19 20 20 17
18 23 21 24 22 18 11 6 5 6 5 6 5 3 3 4 6 4 8 11 14 17 18 19 24 16 22 21 21 21 14 15
18 22 15 18 15 9 5 7 8 8 9 6 6 4 4 3 9 11 14 17 18 14 18 20 18 18 18 23 21 25 16 20
16 18 11 12 11 13 13 11 15 13 4 3 6 4 4 7 10 14 17 16 15 17 20 17 17 18 14 17 24 19 27 23
17 15 14 14 16 15 16 13 12 10 11 13 3 10 11 11 10 14 15 19 21 17 15 19 23 18 19 18 19 25 26 27
18 18 17 19 18 17 15 14 18 15 12 7 4 7 5 8 10 14 15 17 19 19 21 20 19 18 20 24 23 21 19 19
20 20 21 18 16 16 17 15 12 10 8 5 3 10 9 12 17 21 22 17 17 18 17 21 23 24 26 22 23 22 19 18
24 23 19 19 19 20 21 20 17 13 8 3 10 10 12 16 20 19 16 17 18 17 19 23 26 27 23 25 23 24 18 18
24 23 22 21 19 17 17 16 12 3 8 10 14 12 15 15 15 16 18 17 17 18 20 23 25 23 26 24 24 25 22 18

GFSFLT2_850_spd_033.txt.gz
Wind_Speed
29 27 23 16 18 16 14 13 15 16 16 16 17 17 17 16 15 13 12 12 12 13 13 14 15 16 14 11 14 16 16 18
19 24 19 17 16 14 14 14 16 18 18 18 16 15 13 11 9 10 9 9 9 11 11 10 11 10 11 10 10 13 10 14
29 19 19 19 18 17 16 17 18 19 18 17 14 13 13 11 9 7 7 7 8 11 10 5 6 11 13 12 15 16 10 11
19 20 19 19 18 17 16 18 19 20 18 15 11 9 6 7 8 10 8 9 7 10 6 9 11 14 16 17 18 18 11 14
27 22 22 18 18 19 19 21 21 18 14 16 11 8 4 1 3 8 7 8 7 6 4 1 4 7 8 13 17 16 20 13
26 25 20 15 18 20 20 19 17 14 13 13 14 13 10 10 10 8 11 7 4 3 6 4 7 11 13 14 13 16 14 10
29 25 19 23 23 22 20 18 13 15 15 13 13 10 8 7 6 8 10 7 7 8 8 11 15 14 13 12 12 13 14 14
30 26 24 21 21 20 23 18 20 17 12 8 8 7 6 10 12 11 10 12 11 10 13 15 17 15 12 14 16 16 19 19
32 27 27 24 26 24 22 22 20 15 8 3 2 10 12 12 8 8 8 10 11 12 15 17 15 13 17 15 15 14 17 20
27 31 26 26 26 23 22 22 16 11 5 8 3 9 8 8 8 6 8 8 12 15 16 15 13 18 16 13 14 19 20 18
26 30 27 24 22 22 24 17 10 10 13 5 7 8 10 10 6 6 8 12 12 13 14 15 18 17 20 19 16 15 17 11
25 26 25 23 24 27 21 11 11 15 12 5 9 10 8 5 6 9 10 10 12 13 16 17 19 23 22 22 18 18 8 10
26 25 25 25 30 28 19 11 10 10 10 11 9 8 7 7 10 9 8 10 12 16 17 20 22 24 25 23 27 5 13 11
27 24 26 26 33 26 19 13 12 13 11 10 10 9 9 10 10 12 13 15 17 18 19 21 20 21 23 26 12 23 5 13
24 19 19 26 28 20 14 11 16 15 12 12 12 10 6 7 11 13 14 16 18 19 20 21 20 21 23 16 10 7 30 21
20 15 17 20 23 20 22 21 21 16 12 12 11 5 6 8 12 15 17 19 21 22 23 20 21 21 23 18 18 22 28 27
16 16 19 22 23 25 25 20 20 18 18 15 6 4 5 12 14 15 18 20 22 25 20 17 16 21 22 21 23 26 23 24
21 21 21 22 22 24 27 25 26 24 24 16 11 13 12 14 18 20 23 24 22 19 17 16 17 20 22 27 24 23 23 22
26 23 25 28 29 25 27 25 27 26 21 18 13 13 17 17 20 22 23 20 19 17 17 16 18 22 26 25 23 24 22 25
25 29 30 32 31 28 27 24 23 22 21 16 13 14 17 19 22 21 18 21 18 18 16 16 16 17 20 20 20 23 24 24

GFSFLT2_850_spd_036.txt.gz
Wind_Speed
34 33 29 23 15 12 14 16 19 19 20 22 23 22 21 20 19 17 16 15 14 12 12 11 12 14 12 10 12 12 11 12
33 34 35 30 23 17 18 19 20 21 21 21 22 20 18 16 15 14 12 12 12 10 9 10 9 11 12 10 10 12 11 12
12 14 31 21 21 19 20 19 21 22 22 21 19 19 17 15 13 12 11 11 11 7 7 6 5 10 12 16 14 15 9 14
24 32 25 21 21 20 21 22 22 21 18 19 18 16 14 14 15 13 13 11 8 7 3 1 4 9 11 15 15 13 13 12
27 23 23 21 21 21 22 23 22 20 17 16 15 13 13 11 11 11 11 10 7 3 3 1 2 4 8 12 13 14 14 14
26 25 23 22 21 22 24 24 21 18 16 13 12 11 10 11 13 9 10 7 5 5 6 4 4 10 13 12 12 15 13 11
25 24 25 24 23 24 24 22 20 17 14 12 10 8 9 11 11 8 9 8 8 7 6 8 11 14 13 11 12 13 17 18
26 24 24 25 27 24 23 21 19 15 13 13 14 11 10 10 9 11 11 11 11 9 10 12 14 14 12 16 15 16 16 16
27 24 26 27 26 22 21 20 18 17 13 11 8 9 11 15 13 12 12 12 11 11 12 13 13 14 15 17 16 15 16 19
29 27 28 26 23 23 25 24 20 16 14 7 3 7 16 14 11 11 11 10 8 11 13 15 16 17 18 15 12 14 13 13
32 30 31 25 27 28 27 22 19 16 12 9 5 11 14 12 11 10 8 8 11 12 15 16 18 18 17 15 13 10 11 5
34 34 31 28 29 27 25 21 19 14 9 9 9 14 14 13 12 10 8 9 12 14 16 16 17 18 17 15 14 10 6 7
35 35 33 31 32 31 27 23 17 11 9 12 14 13 12 12 9 7 10 12 14 15 15 16 18 17 18 19 12 8 12 5
29 32 33 32 29 28 26 23 16 11 11 13 13 12 11 8 8 11 13 14 16 15 16 17 18 17 19 20 4 14 8 22
28 29 31 30 28 28 27 23 17 18 16 16 15 12 10 9 12 13 14 17 16 16 18 20 20 18 18 14 7 5 24 10
30 27 28 29 28 32 30 25 25 22 19 16 16 13 13 15 14 14 17 16 16 17 20 22 19 19 18 19 17 18 21 21
32 28 23 26 29 33 31 26 22 21 21 19 18 19 19 17 14 14 16 17 18 20 22 20 17 17 15 16 18 21 24 22
32 30 24 26 27 34 32 27 23 24 26 24 22 21 18 15 14 15 17 18 21 22 20 18 17 15 15 19 20 20 20 23
29 24 26 27 29 31 31 30 28 28 29 28 25 22 19 17 18 18 21 20 20 19 17 17 16 16 18 20 22 23 23 22
23 26 26 28 30 30 30 32 33 30 30 27 22 19 19 19 17 19 20 17 18 17 18 16 15 16 19 22 24 24 25 27

GFSFLT2_850_spd_039.txt.gz
Wind_Speed
32 29 31 28 23 24 22 18 17 19 23 24 24 24 24 23 22 21 19 16 14 13 11 10 11 13 10 9 8 10 10 14
33 33 29 27 22 19 13 15 17 20 22 23 22 22 20 19 18 17 14 11 10 9 7 6 8 10 9 11 10 11 11 12
35 31 25 24 23 23 16 18 19 21 22 21 20 19 18 17 15 14 12 9 8 6 4 5 6 9 11 13 13 12 12 13
37 15 24 29 24 19 17 20 21 22 21 22 19 18 17 15 14 13 11 8 4 3 2 4 4 8 10 13 13 13 11 13
22 33 30 23 19 19 21 21 21 21 20 21 17 17 16 14 12 11 9 6 3 2 3 2 4 6 10 12 11 10 11 10
38 31 21 21 20 21 21 22 23 21 19 18 16 15 14 13 11 9 7 7 6 7 5 4 5 8 10 12 14 17 16 16
29 24 22 21 22 23 24 24 21 18 18 15 13 11 10 10 10 9 11 9 8 7 5 6 7 9 11 13 16 17 17 17
22 23 23 22 22 24 26 25 21 17 15 12 10 9 8 7 11 13 13 11 9 7 7 7 9 12 13 15 18 17 16 17
27 26 25 24 25 26 27 24 20 16 11 10 9 10 11 13 14 15 14 12 10 7 7 9 11 13 15 17 16 15 16 15
25 25 25 25 27 27 25 21 19 14 12 12 12 14 14 16 16 15 13 10 9 8 9 12 14 16 15 14 12 12 13 15
26 24 25 27 27 26 22 21 19 18 17 13 9 14 18 17 16 14 11 9 9 10 13 15 15 13 14 12 11 13 14 11
27 26 26 25 26 25 25 25 23 21 19 14 12 14 16 17 15 12 9 9 10 12 15 14 13 13 13 13 16 12 9 7
30 29 28 29 28 27 28 28 25 22 17 15 11 14 18 16 13 11 10 9 12 13 12 13 15 17 19 20 16 5 7 12
31 29 30 32 30 30 30 28 25 19 16 13 13 16 17 14 12 11 10 11 13 12 15 18 20 20 19 19 6 11 17 12
28 30 34 34 32 31 30 27 24 21 17 16 16 17 15 14 12 10 11 12 13 18 20 20 21 21 18 13 7 4 12 13
33 33 36 36 33 33 33 32 31 28 21 18 18 16 14 13 13 13 12 14 16 20 25 23 23 18 17 15 11 12 11 12
37 38 39 36 35 35 34 33 30 22 20 19 18 17 18 17 16 14 13 11 16 18 21 22 19 17 14 10 12 15 16 20
41 39 38 35 34 35 36 33 31 27 22 22 21 20 20 18 16 13 11 13 17 19 21 20 18 16 15 14 14 17 20 20
42 41 39 35 32 33 33 34 31 29 24 24 25 24 23 23 18 15 16 17 18 16 17 19 18 15 13 13 15 18 21 24
42 42 38 36 33 34 31 34 30 28 26 26 28 27 26 22 20 17 19 19 14 19 23 20 18 17 15 15 18 22 25 25

GFSFLT2_850_spd_042.txt.gz
Wind_Speed
36 34 34 26 22 24 24 23 24 26 26 28 29 29 27 25 22 21 18 15 14 13 11 12 13 11 12 11 11 12 13 14
29 34 37 29 24 22 21 22 23 24 27 28 27 26 23 21 19 17 14 13 10 9 7 9 10 8 9 12 13 13 13 14
33 44 34 25 23 21 19 19 20 24 25 25 25 23 21 18 15 13 11 8 7 5 5 6 7 9 11 14 15 14 12 13
37 45 32 28 27 24 17 20 21 24 24 23 22 20 19 17 14 11 8 6 5 3 2 4 6 9 11 14 14 12 13 15
39 40 32 18 22 19 18 20 22 23 22 20 20 18 17 15 13 11 7 6 4 2 1 4 6 8 10 13 12 13 16 14
31 34 30 27 21 20 20 21 22 22 23 20 18 16 15 14 12 10 9 7 4 4 4 4 6 8 10 12 14 17 17 16
36 31 25 20 18 19 20 22 22 22 21 19 16 14 12 12 11 11 10 8 7 6 5 6 7 10 11 12 15 18 18 17
34 26 24 22 21 21 22 23 22 20 18 16 13 12 10 11 12 12 11 10 9 8 7 8 8 10 13 15 16 17 18 16
25 22 22 21 20 21 23 23 21 17 16 13 13 11 10 10 12 12 13 12 11 10 8 8 10 12 15 15 15 16 15 12
22 20 21 20 20 22 23 23 20 16 14 12 12 11 11 12 15 16 14 12 12 9 8 10 13 15 15 14 14 13 13 11
21 21 21 20 19 20 22 22 19 17 15 13 14 12 14 18 17 16 15 13 11 8 9 12 15 14 13 13 13 13 11 6
22 21 20 20 21 23 23 23 20 19 14 16 15 15 16 19 18 15 13 11 9 9 11 13 12 12 12 13 12 8 6 4
26 24 24 24 26 29 29 28 22 21 20 21 17 15 17 17 15 14 13 11 9 11 11 10 11 12 15 17 8 4 6 8
28 27 28 27 28 28 28 25 25 22 21 21 19 15 16 15 14 14 13 11 11 8 8 9 11 14 16 17 6 8 9 11
32 30 30 29 29 29 28 28 27 26 26 24 19 17 17 16 16 16 14 12 9 7 7 9 14 19 19 15 7 5 17 7
30 30 30 30 29 29 31 30 30 31 28 23 20 20 19 19 18 16 14 13 10 7 9 14 19 22 18 15 13 13 9 12
31 30 30 30 31 31 32 32 32 29 27 25 22 21 21 21 19 17 16 14 11 10 14 20 25 18 16 15 14 14 14 18
33 32 31 31 31 33 34 34 34 31 28 26 25 23 23 22 20 19 19 18 16 17 28 23 17 17 17 13 12 12 14 17
37 37 37 36 35 33 35 37 36 32 29 29 26 26 25 24 24 24 23 19 15 27 26 15 18 18 14 13 12 12 15 20
39 39 38 38 39 37 37 37 37 33 30 31 27 25 25 26 28 25 22 14 35 26 21 12 13 13 14 13 12 14 17 20

GFSFLT2_850_spd_045.txt.gz
Wind_Speed
32 34 32 26 28 32 30 28 30 33 34 34 32 30 27 26 24 23 21 19 17 15 14 13 12 11 12 12 12 13 14 15
33 32 33 31 22 30 30 28 31 32 33 33 31 28 25 22 20 18 17 14 12 12 11 10 10 9 10 12 14 13 15 14
41 39 38 30 21 25 30 29 29 30 30 30 29 26 24 22 17 15 12 11 11 9 8 7 7 8 10 13 13 14 15 14
34 32 32 26 19 25 31 28 26 29 29 28 27 24 22 19 16 12 10 9 6 5 4 5 6 9 11 13 14 15 16 16
37 43 48 28 30 29 28 24 26 27 28 27 25 22 19 16 13 11 9 6 3 1 1 3 6 10 11 13 15 16 16 15
35 42 45 35 30 22 21 27 27 27 27 25 22 20 17 14 12 9 8 6 4 3 1 4 6 9 12 14 15 16 15 14
43 43 38 33 23 20 23 24 26 25 23 21 19 17 15 14 11 11 9 9 6 3 3 6 10 11 12 13 15 16 15 14
30 29 25 24 21 19 21 23 24 23 22 19 17 15 13 13 11 11 12 10 7 6 7 9 10 11 13 14 14 14 15 13
31 28 26 23 21 21 22 23 23 21 20 18 15 14 12 12 13 12 12 11 9 9 9 10 10 11 12 12 13 14 14 13
31 25 22 19 19 20 22 23 22 20 18 17 15 15 14 13 12 13 12 11 10 11 10 9 9 10 12 13 13 13 13 10
28 22 21 20 20 20 21 22 21 18 16 16 16 15 14 12 13 14 13 13 13 11 10 8 9 11 12 13 14 13 8 6
25 22 21 21 20 20 22 23 23 20 18 16 15 14 13 13 16 15 15 16 14 12 10 9 8 10 11 12 12 8 6 4
28 25 22 23 24 24 24 25 24 21 19 16 15 16 15 16 18 18 17 17 15 13 10 7 8 10 12 13 8 5 7 6
29 27 25 25 25 24 25 24 24 21 21 20 19 19 18 18 18 18 18 18 17 13 9 9 9 10 8 6 3 7 9 9
28 28 27 26 23 24 26 25 24 24 25 24 23 21 20 18 18 19 19 19 15 13 12 9 9 9 7 5 5 5 10 8
33 32 29 28 27 27 28 28 30 29 28 27 25 22 22 20 20 21 21 19 17 17 13 10 8 7 12 12 13 13 6 8
32 32 31 31 31 31 31 32 32 29 27 27 24 25 24 22 23 23 23 22 21 18 14 11 16 18 12 15 15 14 14 10
32 32 31 31 32 32 32 33 31 29 29 27 27 27 27 26 26 26 25 24 23 19 13 21 24 14 18 16 13 9 8 9
34 33 32 32 32 32 31 31 30 30 30 29 28 30 31 29 29 29 29 27 22 14 20 26 15 14 13 10 11 11 12 14
34 34 33 33 27 29 31 30 29 28 31 31 29 30 33 30 32 32 32 27 23 20 20 11 10 9 8 11 11 12 13 13

GFSFLT2_850_spd_048.txt.gz
Wind_Speed
36 32 30 30 28 25 29 30 31 32 32 31 31 30 29 27 25 23 22 21 19 17 14 13 12 13 15 15 14 14 12 12
38 37 36 33 30 24 27 31 32 31 30 31 31 30 27 25 23 22 21 18 16 13 12 11 11 11 12 13 12 14 10 9
38 42 43 39 37 28 23 29 31 31 28 29 30 27 26 22 21 19 16 14 12 10 10 9 9 10 11 12 13 8 9 8
36 37 42 40 31 29 27 28 31 32 29 29 21 22 19 20 19 17 14 11 9 9 7 7 8 7 10 10 7 9 8 8
45 44 43 43 36 31 29 31 32 26 31 24 21 22 21 18 17 16 12 10 10 7 5 4 4 5 7 8 11 10 9 7
37 35 36 39 40 33 32 34 28 29 29 27 24 22 19 16 13 13 13 12 7 5 4 1 3 7 9 12 14 10 8 7
37 37 38 39 40 38 34 30 32 28 29 25 21 18 19 16 14 12 10 9 8 6 4 0 5 7 9 11 13 13 12 9
39 35 38 39 40 32 29 21 25 26 26 24 21 17 16 13 13 10 10 10 8 7 3 3 4 6 10 12 11 11 10 8
29 28 28 32 32 24 24 27 27 25 21 23 19 17 15 13 12 12 11 12 10 9 6 6 5 6 8 10 10 11 10 8
25 25 26 23 21 21 21 21 25 22 21 21 18 17 15 14 14 13 14 12 11 11 9 6 6 6 7 7 8 9 10 6
24 23 22 23 22 22 22 24 24 21 22 20 18 17 17 15 14 13 13 14 14 13 11 9 8 6 3 6 9 9 6 5
26 25 21 21 21 21 19 21 20 19 20 20 19 18 17 16 15 13 14 16 17 15 14 11 5 4 3 5 9 9 7 6
28 25 21 21 19 19 19 20 20 21 21 22 20 18 18 17 15 16 18 17 17 17 15 10 7 6 3 6 8 8 9 8
28 27 23 22 20 19 18 19 20 20 20 23 21 20 18 18 19 18 17 17 20 19 16 11 8 9 3 7 6 9 9 11
29 28 24 23 21 19 18 17 17 21 22 25 25 21 20 22 22 20 20 22 22 21 18 14 9 9 8 6 6 8 11 11
28 27 26 25 23 21 23 22 21 20 20 22 25 26 25 24 24 23 23 24 23 23 20 16 13 7 11 13 10 10 7 9
29 28 27 26 25 25 22 22 19 18 21 21 26 27 27 27 27 26 25 26 27 26 24 19 16 11 14 9 10 11 10 11
28 29 28 27 26 27 26 25 24 22 22 22 26 30 29 28 28 27 27 28 29 28 25 23 19 20 22 11 12 11 11 12
29 30 30 29 30 30 30 31 28 29 28 27 29 29 29 28 30 31 31 31 31 30 27 24 23 20 15 10 11 12 11 11
29 31 32 30 31 30 31 31 32 31 27 30 32 29 28 27 30 33 32 33 33 30 28 25 22 15 10 10 11 11 11 11

GFSFLT2_850_spd_054.txt.gz
Wind_Speed
31 31 24 22 22 22 22 25 27 27 30 29 30 30 29 27 25 23 22 19 19 18 17 16 17 18 20 20 21 16 7 11
31 27 28 22 17 16 21 23 27 30 30 29 28 28 28 26 24 23 21 19 18 17 15 15 15 16 18 19 17 16 7 4
31 35 32 28 27 22 18 19 25 29 30 27 26 26 25 25 23 21 19 18 16 14 13 13 14 15 15 14 12 13 1 5
38 35 34 28 34 35 34 20 24 27 28 27 24 26 24 24 23 19 16 16 14 13 15 15 14 12 10 7 12 9 1 4
40 36 32 29 30 37 35 35 26 27 29 28 27 22 17 23 21 17 14 13 12 13 13 10 7 7 1 4 11 3 3 7
32 37 32 36 39 36 37 34 29 27 29 28 23 22 14 20 17 15 13 11 10 10 7 7 5 3 1 4 5 4 8 5
27 32 36 38 41 39 37 34 35 31 26 21 19 20 16 16 12 11 10 7 6 7 9 6 4 3 1 4 5 5 7 3
29 34 33 33 35 38 35 28 32 31 23 24 21 18 14 12 11 9 9 14 9 11 8 5 1 4 3 1 0 3 4 1
26 29 31 30 36 32 28 29 26 27 32 19 18 14 15 17 18 15 14 11 10 12 12 7 11 4 8 5 3 3 5 3
25 31 36 34 36 34 33 31 31 32 23 18 18 17 17 18 14 15 14 15 18 14 17 12 7 6 5 6 5 7 7 5
23 29 26 28 35 29 39 35 36 22 20 20 23 22 17 17 16 17 19 19 17 17 13 11 11 10 11 10 11 7 11 4
24 30 28 30 36 34 33 35 29 22 21 20 20 21 24 21 21 18 19 19 15 16 16 13 13 13 9 14 14 14 12 12
25 29 35 31 29 34 24 23 23 24 25 24 26 24 23 22 20 19 21 18 16 18 18 18 18 17 19 18 16 15 16 15
29 30 33 30 29 27 27 28 29 27 25 24 27 25 23 23 20 20 21 20 21 23 19 20 19 20 20 13 14 14 20 16
25 26 26 26 25 20 19 22 19 22 25 28 19 23 22 22 20 23 25 21 25 23 21 19 20 21 22 16 8 11 6 10
30 29 28 27 27 29 28 26 28 28 26 27 26 30 28 26 24 27 27 26 26 24 23 21 22 22 24 22 22 20 11 8
33 34 34 32 28 27 29 28 25 24 25 27 26 30 30 28 29 27 29 32 29 28 28 26 24 25 19 21 23 18 12 11
38 37 37 34 31 27 28 29 28 26 26 28 30 31 29 25 29 30 34 33 31 28 28 28 26 27 28 23 21 20 12 12
40 40 39 36 35 31 29 28 25 28 28 29 32 34 31 30 27 29 33 34 31 26 28 31 32 32 31 28 24 19 22 20
42 42 40 36 35 33 30 33 31 29 31 29 28 30 34 31 31 27 28 27 26 26 26 29 34 32 31 29 24 23 23 19

GFSFLT2_850_spd_057.txt.gz
Wind_Speed
21 24 26 26 24 21 20 19 23 26 29 30 31 29 28 26 26 24 23 23 22 21 21 22 23 23 22 19 10 4 8 12
23 25 26 26 26 24 20 19 23 24 26 29 31 30 27 25 25 23 22 22 20 20 20 20 22 23 22 17 12 8 6 9
26 27 30 31 20 23 18 17 20 25 25 27 27 27 25 24 22 22 21 20 19 19 20 18 18 16 16 17 8 6 5 7
29 31 30 27 24 21 33 27 22 24 25 26 27 27 24 23 21 20 20 18 17 18 18 15 14 11 12 15 9 4 4 7
31 33 30 30 27 32 40 38 27 27 28 29 29 25 22 22 20 19 18 16 16 16 13 11 9 7 6 8 6 2 3 6
34 32 33 30 32 41 42 42 30 32 32 29 27 26 23 20 19 16 15 15 14 12 9 8 5 4 4 5 5 1 2 5
32 32 34 36 38 42 42 39 35 31 31 26 25 21 20 20 16 14 13 12 11 8 6 4 6 6 4 4 7 3 2 3
32 31 32 36 42 44 44 42 36 34 31 27 25 28 18 17 14 12 11 12 9 7 6 6 5 5 2 1 1 3 0 2
30 29 33 37 40 42 43 43 37 37 28 29 29 22 18 16 13 13 11 9 8 10 12 8 6 5 5 3 4 3 2 5
33 33 32 35 31 38 37 37 38 38 30 31 22 22 21 19 16 16 14 15 15 16 15 13 11 10 8 7 6 5 4 4
30 33 38 37 40 33 36 38 29 28 33 37 21 23 21 19 20 20 18 19 20 20 18 17 15 11 12 12 12 11 9 10
27 31 32 38 34 34 42 37 31 35 38 31 23 23 20 20 20 21 23 23 21 21 20 18 16 16 17 17 15 15 13 12
29 33 30 35 32 38 44 35 40 37 32 24 24 23 23 27 22 25 26 24 23 22 19 18 19 19 18 19 16 17 16 15
32 33 32 33 34 35 36 42 39 34 26 26 26 25 24 24 27 27 27 25 24 24 22 21 20 24 24 23 19 22 23 22
35 34 34 36 33 31 30 26 31 30 30 30 29 32 28 26 27 27 29 27 25 27 25 22 22 26 25 24 11 14 14 18
32 33 35 33 31 32 29 31 33 32 31 33 32 28 29 30 28 27 30 29 27 29 28 27 25 27 27 26 27 20 10 8
32 33 35 34 32 32 32 31 29 25 26 26 30 30 32 32 30 28 30 32 30 29 31 32 30 26 26 28 27 26 27 19
37 35 35 34 34 34 35 35 33 30 29 30 30 30 32 33 31 30 32 33 34 34 32 32 31 29 30 30 31 28 27 22
41 39 38 38 37 36 35 37 36 36 33 31 31 33 33 37 36 33 32 35 34 34 34 33 32 30 31 34 34 25 25 27
47 47 43 44 43 40 36 33 37 35 39 32 30 32 35 35 36 36 29 27 29 33 32 31 30 31 33 38 33 30 27 24

GFSFLT2_850_spd_060.txt.gz
Wind_Speed
22 26 22 22 27 34 18 23 27 30 29 29 29 31 30 29 28 27 26 25 26 27 26 24 20 15 11 10 11 12 13 17
18 22 25 25 25 30 31 27 22 28 29 29 29 29 30 28 26 26 25 24 24 23 23 21 18 15 10 8 9 10 12 14
20 25 28 31 32 34 26 23 29 29 32 31 30 29 29 28 26 25 22 22 22 22 21 20 17 12 9 8 8 9 10 11
26 33 29 33 36 24 35 31 25 30 33 31 30 29 28 27 26 23 21 21 21 21 20 17 15 11 8 6 6 7 7 10
28 29 31 34 26 34 34 35 33 32 33 32 30 29 28 27 25 22 19 18 19 17 14 13 13 9 7 5 3 5 7 9
38 37 34 29 28 32 34 35 35 34 35 35 33 30 29 24 21 19 17 16 15 12 10 10 7 6 3 3 3 3 4 6
29 27 32 27 29 38 36 36 36 36 36 37 35 30 26 19 18 18 17 16 13 10 9 6 4 5 5 3 2 2 1 3
33 36 29 32 30 33 39 34 33 36 36 34 32 30 30 24 20 18 17 14 12 10 7 4 5 6 6 5 4 3 2 1
26 25 28 28 36 42 44 40 34 37 32 28 31 32 31 25 19 17 15 14 12 10 10 7 8 7 4 6 6 6 4 5
25 29 26 33 34 43 44 37 40 37 33 33 26 28 24 22 19 16 15 15 14 12 13 12 10 9 7 8 8 8 8 8
26 27 27 29 34 42 41 38 39 39 35 32 32 29 25 23 21 18 17 17 17 16 18 16 14 13 12 11 11 11 11 11
23 25 25 29 38 40 36 33 34 33 34 35 30 27 26 23 21 17 20 20 20 21 21 20 19 17 16 15 15 15 14 14
27 27 31 38 40 44 43 39 39 39 35 44 25 27 26 24 22 20 24 27 24 24 24 24 23 21 18 19 19 19 21 19
29 30 33 35 38 40 43 39 38 37 43 37 28 27 26 25 25 24 26 27 25 26 27 27 25 23 23 23 21 23 26 25
33 36 36 37 41 34 41 41 40 40 41 43 43 31 27 27 26 26 29 29 29 28 29 29 29 25 27 23 12 18 23 27
36 39 37 37 41 39 44 46 46 47 47 44 44 32 30 31 29 28 28 31 33 32 31 30 30 29 28 30 32 24 14 10
37 39 39 39 41 41 45 42 44 45 43 40 37 34 35 31 32 30 32 33 33 33 34 33 31 32 32 32 32 34 37 29
38 39 40 40 41 41 43 43 43 44 41 39 35 36 37 35 33 34 31 33 32 31 32 33 32 34 34 34 30 37 36 36
43 44 43 43 44 42 42 42 40 39 37 36 34 33 35 37 34 38 37 34 33 30 31 35 32 33 34 34 32 36 38 34
47 46 46 47 47 45 43 42 41 41 39 38 36 36 35 34 32 32 31 35 35 25 31 35 30 34 34 32 35 36 34 35

GFSFLT2_850_spd_066.txt.gz
Wind_Speed
24 27 28 29 23 31 35 35 31 31 33 34 34 35 33 32 31 30 27 26 25 25 25 24 23 20 20 20 20 18 17 18
25 31 37 26 33 44 36 30 33 31 35 36 36 34 31 30 31 28 26 25 25 25 23 21 20 18 18 18 17 17 16 16
11 26 26 39 28 20 25 30 31 31 35 33 34 33 32 32 31 29 25 24 25 24 22 20 19 17 17 16 16 17 15 15
11 22 39 38 35 30 30 33 36 30 30 34 34 33 32 31 31 28 25 23 23 21 18 17 14 15 15 15 14 16 16 16
15 28 32 29 28 33 33 38 38 34 31 32 33 34 32 31 32 30 26 22 21 20 18 15 12 12 12 12 12 14 14 15
24 21 29 30 32 38 39 38 40 40 36 33 34 33 30 31 30 29 26 22 20 17 16 15 13 12 9 9 10 11 12 12
30 35 28 36 39 34 36 39 42 47 45 37 32 35 36 33 30 28 26 22 19 18 16 13 12 11 9 6 7 8 9 9
30 26 39 31 37 37 35 42 46 41 41 44 40 37 36 33 31 29 26 23 18 16 13 11 9 8 7 6 5 5 5 6
24 36 30 35 35 34 36 40 42 43 41 42 41 37 35 32 29 26 24 21 18 15 13 10 7 6 6 5 4 4 3 3
18 31 35 33 19 27 30 34 36 35 40 40 36 37 33 29 26 24 22 16 13 12 10 8 6 5 4 4 4 5 5 3
19 29 24 24 24 32 37 36 40 39 38 39 38 36 32 28 26 23 13 13 13 11 8 9 7 5 6 6 6 6 7 7
12 16 21 27 22 31 35 36 35 39 38 39 37 34 31 31 21 13 19 17 15 14 12 9 9 9 9 10 11 11 11 11
14 16 21 29 30 36 36 36 37 34 37 39 35 36 30 24 24 26 27 20 18 15 13 14 14 14 15 15 16 16 17 17
15 15 18 25 32 30 36 37 34 37 37 38 36 33 34 29 29 27 25 23 20 18 17 18 18 19 19 19 19 21 23 22
20 20 21 20 24 33 34 33 33 38 38 36 32 34 33 32 28 26 26 20 18 18 19 20 21 21 23 20 9 13 17 17
19 22 23 24 27 33 38 38 42 40 42 35 35 36 32 32 31 25 23 20 20 20 21 23 22 23 25 28 30 31 19 14
17 21 25 26 28 32 39 40 41 44 40 40 44 39 40 37 31 28 24 23 24 26 25 26 26 28 30 32 33 34 35 35
21 22 25 27 29 32 38 41 40 48 44 43 44 41 46 44 41 34 26 24 26 29 29 29 31 31 33 35 37 32 33 36
25 25 27 30 32 35 38 41 43 43 47 48 47 45 44 48 46 42 37 32 30 32 32 31 34 36 32 29 37 37 38 38
30 30 30 32 34 36 38 39 40 41 44 46 47 43 45 41 48 49 45 38 36 39 37 37 37 37 29 22 23 29 31 35

GFSFLT2_850_spd_072.txt.gz
Wind_Speed
20 26 28 25 25 25 26 30 33 35 32 27 27 20 26 28 28 27 25 23 24 25 24 24 24 23 23 22 22 24 18 18
20 23 29 29 29 27 26 27 31 35 34 30 22 30 30 31 30 27 28 26 25 25 24 24 24 23 23 21 20 24 17 17
20 24 28 33 30 28 29 29 32 34 32 30 32 31 32 27 29 29 29 28 27 25 24 24 24 23 22 22 19 16 15 14
16 16 18 20 28 33 32 31 33 35 33 36 34 33 30 27 30 30 30 28 27 24 23 23 22 22 21 17 14 15 15 13
13 18 25 24 23 42 35 38 41 37 36 36 32 30 34 31 32 30 30 27 26 24 23 18 16 16 16 12 17 14 15 14
12 12 16 14 14 26 29 30 41 43 43 36 35 33 35 34 31 30 28 25 24 22 18 16 17 16 15 17 15 13 14 14
12 15 18 18 24 20 25 27 26 34 35 34 36 36 37 36 28 26 25 23 22 20 16 18 18 17 15 15 13 13 15 13
15 16 19 22 31 22 29 29 34 38 35 33 34 37 37 34 32 26 25 24 22 19 19 18 17 15 15 14 12 12 12 13
13 14 18 24 23 33 31 30 34 36 37 37 35 33 33 33 32 28 23 22 21 20 18 17 16 15 14 15 12 11 10 10
12 18 26 33 30 25 34 39 40 38 37 40 38 37 31 30 32 28 24 25 23 20 20 20 16 15 14 13 11 10 10 9
13 14 22 25 30 29 34 33 40 37 35 39 41 32 32 32 30 24 30 28 22 22 22 17 17 15 14 12 11 10 10 10
19 15 18 28 24 28 31 33 43 42 36 38 39 36 35 36 31 32 31 26 25 25 23 17 16 16 12 11 10 9 10 10
19 18 20 24 28 28 34 37 43 44 43 39 42 37 39 37 29 33 32 29 26 23 21 19 17 16 12 11 11 11 11 13
19 20 22 19 26 24 27 36 38 44 48 48 44 39 40 41 38 35 32 30 22 22 22 18 18 18 13 10 8 11 16 18
18 24 26 30 25 23 29 35 34 36 43 50 48 37 40 40 37 36 34 28 25 24 19 18 16 16 17 11 7 10 8 10
19 23 26 29 29 30 29 32 38 37 41 41 47 41 41 39 38 35 32 28 29 22 20 22 18 17 18 21 19 13 11 9
21 23 24 29 30 29 31 25 36 37 38 41 47 45 39 39 40 38 34 32 29 24 27 27 22 20 21 17 20 21 22 19
23 23 25 27 28 29 29 29 33 36 42 43 42 50 50 45 42 38 34 36 31 28 27 26 29 27 23 21 18 15 15 17
26 25 26 28 29 28 30 30 32 35 33 39 45 42 51 54 49 42 42 44 36 35 33 30 33 28 26 20 20 21 20 22
30 29 28 30 30 30 30 29 30 28 32 38 45 43 45 58 55 49 52 45 43 40 38 38 31 29 27 26 25 24 23 29

GFSFLT2_850_spd_075.txt.gz
Wind_Speed
16 19 14 17 18 21 22 29 30 36 35 32 29 26 28 22 22 21 20 21 22 23 23 21 23 24 26 26 27 22 16 16
16 15 14 15 17 19 22 19 32 31 34 31 29 28 27 21 23 23 21 21 22 23 23 23 24 23 23 25 28 21 17 16
18 16 15 16 18 19 18 17 26 27 33 31 25 27 30 25 27 25 23 23 24 24 25 24 24 24 22 24 19 14 15 13
14 18 20 21 22 21 21 19 22 32 34 29 29 25 25 29 26 26 25 25 25 25 24 23 24 25 24 19 14 13 12 13
9 12 16 19 23 25 28 28 28 35 35 33 31 29 26 26 28 28 28 27 25 24 25 21 17 18 16 8 13 12 12 12
10 14 18 18 20 24 32 31 35 36 37 37 33 34 31 27 32 31 30 28 26 26 21 16 16 16 11 14 14 12 12 13
12 12 10 12 13 11 24 30 32 36 36 37 38 35 33 29 31 30 27 22 23 22 15 17 16 15 14 13 14 13 13 11
11 12 13 11 12 12 14 25 29 40 39 39 35 34 30 29 31 27 26 22 21 18 16 16 15 14 14 14 13 13 12 12
15 14 14 17 20 18 15 17 21 30 37 33 34 30 32 29 29 27 26 23 21 18 17 16 15 14 14 14 13 14 14 13
14 15 14 15 19 26 20 25 27 30 32 29 30 36 36 33 32 28 26 23 21 19 18 16 15 15 14 13 13 13 13 13
12 15 13 16 16 25 24 23 26 37 38 36 33 31 36 32 28 24 28 24 22 20 19 18 17 15 15 14 13 12 13 13
12 14 12 14 20 25 29 27 30 35 38 39 37 34 36 31 29 26 27 24 22 19 18 17 15 16 14 14 14 13 13 15
15 18 15 20 21 29 27 33 34 36 40 40 40 33 33 30 27 29 29 23 23 22 19 18 15 16 15 12 12 14 14 14
17 22 18 18 25 24 24 29 36 34 39 35 37 39 35 35 29 30 30 26 24 22 21 19 17 19 16 12 12 13 18 19
18 22 21 21 23 27 27 29 34 36 40 40 44 40 34 31 28 27 33 30 28 27 25 23 21 24 21 12 8 10 13 17
18 20 24 26 27 28 30 34 36 42 46 46 45 44 43 35 37 35 33 33 31 28 25 23 22 18 18 21 17 12 8 7
20 23 25 31 27 28 30 31 34 36 38 51 45 47 43 41 40 37 35 35 33 30 27 28 24 21 21 19 12 16 19 18
23 23 26 29 36 32 29 25 29 36 38 39 55 55 47 38 41 38 41 42 39 34 32 29 24 23 23 24 25 19 13 16
24 25 25 30 32 35 35 33 30 32 38 38 43 57 57 56 44 45 46 47 42 39 38 33 30 35 32 30 26 22 22 21
26 26 26 28 31 33 34 33 34 31 33 39 40 49 53 58 52 49 47 49 44 43 41 38 32 33 34 31 30 28 26 25